Visibility
15.0 15.0 15.0 15.0 15.0 15.0 15.0 15.0 15.0 15.0 15.0 15.0 15.0 15.0 15.0 15.0 15.0 15.0 15.0 15.0 15.0 15.0 15.0 15.0 15.0 15.0 15.0 15.0 15.0 15.0 15.0 15.0 15.0 15.0 15.0 15.0 15.0 15.0 15.0 15.0 15.0 15.0 15.0 15.0
15.0 15.0 15.0 15.0 15.0 15.0 15.0 15.0 15.0 15.0 15.0 15.0 15.0 15.0 15.0 15.0 15.0 15.0 15.0 15.0 15.0 15.0 15.0 15.0 15.0 15.0 15.0 15.0 15.0 15.0 15.0 15.0 15.0 15.0 15.0 15.0 15.0 15.0 15.0 15.0 15.0 15.0 15.0 15.0
15.0 15.0 15.0 15.0 15.0 15.0 15.0 15.0 15.0 15.0 15.0 15.0 15.0 15.0 15.0 15.0 15.0 15.0 15.0 15.0 15.0 15.0 15.0 15.0 15.0 15.0 15.0 15.0 15.0 15.0 15.0 15.0 15.0 15.0 15.0 15.0 15.0 15.0 15.0 15.0 15.0 15.0 15.0 15.0
15.0 15.0 15.0 15.0 15.0 15.0 15.0 15.0 15.0 15.0 15.0 15.0 15.0 15.0 15.0 15.0 15.0 15.0 15.0 15.0 15.0 15.0 15.0 13.5 15.0 15.0 15.0 15.0 15.0 15.0 15.0 15.0 15.0 15.0 15.0 15.0 15.0 15.0 15.0 15.0 15.0 15.0 15.0 15.0
15.0 15.0 15.0 15.0 15.0 15.0 15.0 15.0 15.0 15.0 15.0 15.0 15.0 15.0 15.0 15.0 15.0 15.0 15.0 15.0 15.0 15.0 12.1 15.0 15.0 15.0 15.0 15.0 15.0 15.0 15.0 15.0 15.0 15.0 15.0 15.0 15.0 15.0 15.0 15.0 15.0 15.0 15.0 15.0
10.5 10.8 5.3 15.0 15.0 15.0 15.0 15.0 15.0 15.0 15.0 15.0 15.0 15.0 15.0 15.0 15.0 15.0 15.0 15.0 15.0 15.0 15.0 15.0 15.0 15.0 15.0 12.0 14.7 15.0 15.0 15.0 15.0 15.0 15.0 15.0 15.0 15.0 15.0 15.0 15.0 15.0 15.0 15.0
15.0 15.0 14.8 15.0 15.0 15.0 15.0 15.0 10.6 12.3 14.8 15.0 15.0 15.0 15.0 15.0 15.0 15.0 15.0 15.0 15.0 15.0 11.7 5.4 15.0 8.9 7.5 4.6 0.1 6.3 15.0 15.0 15.0 15.0 15.0 15.0 15.0 15.0 15.0 15.0 15.0 15.0 15.0 15.0
6.8 5.4 5.3 0.1 15.0 15.0 6.3 1.6 1.7 0.6 0.5 3.4 12.6 15.0 15.0 15.0 15.0 15.0 15.0 15.0 15.0 15.0 15.0 15.0 15.0 13.7 7.2 4.4 4.0 5.3 5.7 6.7 9.4 11.6 14.5 15.0 15.0 12.0 15.0 15.0 15.0 15.0 15.0 15.0
15.0 14.7 0.4 0.6 1.0 0.3 0.4 1.8 1.0 1.9 1.0 1.9 4.7 1.3 2.2 2.0 11.3 15.0 15.0 15.0 15.0 15.0 15.0 15.0 15.0 12.5 10.5 3.5 4.9 8.0 14.5 4.6 4.6 6.0 6.9 5.6 9.6 5.2 5.8 15.0 15.0 15.0 15.0 15.0
15.0 2.0 1.1 0.4 0.6 0.7 0.4 0.3 0.4 0.3 0.4 0.6 0.6 0.5 0.5 0.5 0.6 2.2 7.6 14.8 15.0 15.0 15.0 11.2 5.1 14.2 4.1 5.4 4.4 15.0 4.1 4.0 3.6 4.6 3.4 6.7 7.9 7.1 8.7 8.3 9.3 15.0 15.0 15.0
0.6 0.3 0.4 0.5 0.4 0.3 0.4 0.5 0.7 0.5 0.2 0.2 0.3 0.4 1.2 2.8 3.5 1.3 0.4 3.1 10.6 4.1 4.2 4.1 4.1 7.2 4.9 12.4 11.6 4.1 4.9 4.1 4.1 4.3 2.1 2.6 3.2 4.3 3.8 10.9 13.6 7.6 12.1 15.0
0.1 0.2 0.1 0.2 0.2 0.2 0.4 0.3 0.3 0.3 0.4 0.3 0.3 1.1 9.7 9.0 12.6 0.5 1.9 1.7 1.9 2.9 4.1 4.1 4.1 9.8 15.0 12.8 6.0 4.1 4.1 3.8 3.4 4.1 3.0 3.2 4.1 3.8 15.0 14.6 15.0 15.0 15.0 15.0
0.1 0.1 0.1 0.1 0.1 0.1 0.1 0.1 0.1 0.2 0.2 0.1 0.1 0.1 0.3 0.8 11.1 2.8 15.0 15.0 2.9 0.9 1.9 3.8 4.1 7.4 4.4 4.1 4.1 4.1 4.0 4.1 4.1 5.3 2.8 3.5 3.5 4.1 4.0 4.0 15.0 15.0 15.0 15.0
0.1 0.1 0.1 0.1 0.1 0.1 0.1 0.1 0.1 0.1 0.1 0.1 0.1 0.1 0.2 0.7 15.0 15.0 15.0 5.6 4.0 1.8 2.2 2.0 2.7 3.9 5.8 5.8 4.6 1.3 3.5 12.9 4.1 4.1 4.1 3.4 4.0 4.1 4.1 4.1 3.1 1.4 13.8 4.5
0.1 0.1 0.1 0.1 0.1 0.1 0.1 0.1 0.1 0.1 0.1 0.1 0.1 0.2 0.4 5.3 15.0 15.0 15.0 12.5 15.0 6.0 4.1 3.6 3.9 12.1 4.2 4.0 3.7 0.9 0.9 0.4 2.6 2.6 2.5 0.7 0.3 0.3 0.9 2.4 3.5 3.7 1.6 1.8
0.2 0.2 0.2 0.1 0.1 0.1 0.2 0.3 0.2 0.2 0.1 0.1 0.1 0.1 0.2 1.0 15.0 15.0 15.0 9.3 6.3 4.0 5.1 1.3 3.1 15.0 7.9 3.9 2.2 1.2 0.9 1.3 1.1 2.2 0.9 1.0 2.3 1.2 0.7 0.9 3.2 9.8 14.3 15.0
0.9 1.7 1.8 0.8 0.6 0.6 0.5 0.3 0.3 0.5 0.5 0.4 0.4 1.1 14.5 15.0 15.0 15.0 15.0 15.0 15.0 15.0 15.0 3.6 3.1 7.8 15.0 4.1 3.8 3.7 3.8 2.1 0.7 15.0 3.4 4.5 14.7 15.0 12.8 14.9 14.9 15.0 15.0 15.0
15.0 15.0 15.0 15.0 15.0 15.0 15.0 15.0 15.0 15.0 15.0 15.0 15.0 15.0 15.0 15.0 15.0 15.0 15.0 15.0 13.9 15.0 15.0 15.0 12.0 8.5 4.9 3.7 2.3 2.5 4.0 3.3 1.1 4.7 4.3 4.1 4.1 5.3 8.2 15.0 15.0 15.0 15.0 15.0
15.0 15.0 15.0 15.0 15.0 15.0 15.0 15.0 15.0 15.0 15.0 15.0 15.0 15.0 15.0 15.0 15.0 15.0 15.0 14.9 15.0 15.0 15.0 12.4 10.2 0.5 0.6 6.1 1.0 1.9 1.8 2.9 2.6 1.7 3.6 11.9 3.7 4.1 15.0 15.0 15.0 15.0 15.0 15.0
15.0 15.0 15.0 15.0 15.0 15.0 15.0 15.0 15.0 15.0 15.0 15.0 15.0 15.0 15.0 15.0 15.0 15.0 15.0 3.7 15.0 15.0 15.0 13.7 14.1 8.2 2.9 3.1 4.6 0.1 2.4 2.9 14.0 15.0 14.3 13.7 15.0 15.0 15.0 13.8 14.6 15.0 15.0 15.0
15.0 15.0 15.0 15.0 15.0 15.0 15.0 15.0 15.0 15.0 15.0 15.0 13.4 12.5 15.0 15.0 15.0 15.0 5.6 6.1 15.0 15.0 14.9 12.5 0.8 1.6 14.5 5.0 1.5 0.2 1.2 2.8 11.6 13.8 15.0 15.0 15.0 12.3 5.4 14.7 14.6 15.0 15.0 15.0
15.0 15.0 15.0 15.0 15.0 15.0 15.0 15.0 15.0 15.0 15.0 15.0 15.0 15.0 15.0 15.0 15.0 15.0 15.0 15.0 15.0 15.0 15.0 14.3 15.0 15.0 1.2 7.9 1.4 4.0 13.8 6.2 1.5 1.0 1.1 4.8 12.1 11.7 15.0 15.0 14.1 15.0 15.0 15.0
15.0 15.0 15.0 15.0 15.0 15.0 15.0 15.0 15.0 15.0 15.0 15.0 15.0 15.0 15.0 15.0 15.0 6.1 7.1 15.0 15.0 15.0 15.0 15.0 14.2 15.0 14.8 13.6 0.1 1.1 10.8 15.0 15.0 15.0 15.0 15.0 14.1 8.4 5.4 3.9 9.5 15.0 15.0 15.0
15.0 15.0 15.0 15.0 14.0 1.9 3.7 15.0 15.0 15.0 15.0 15.0 15.0 15.0 15.0 3.4 11.0 15.0 15.0 14.1 7.2 5.7 9.9 1.3 14.4 10.5 11.9 6.0 0.1 0.2 2.3 14.3 15.0 15.0 15.0 7.5 0.9 1.6 2.5 6.6 10.8 15.0 15.0 15.0
15.0 15.0 15.0 15.0 6.0 15.0 15.0 15.0 13.5 14.4 15.0 15.0 15.0 15.0 15.0 15.0 6.2 15.0 15.0 13.2 14.4 8.3 0.2 15.0 11.7 7.4 1.6 0.1 0.4 4.0 3.0 4.1 12.1 12.5 1.1 1.2 6.0 15.0 15.0 15.0 15.0 15.0 15.0 14.8
15.0 15.0 15.0 15.0 15.0 15.0 2.7 0.4 0.5 10.6 6.1 1.2 12.1 15.0 15.0 15.0 9.5 5.8 5.8 4.2 1.5 3.3 8.7 15.0 15.0 15.0 15.0 9.1 11.1 11.4 5.6 5.0 7.6 8.0 7.1 8.3 15.0 15.0 15.0 15.0 15.0 15.0 15.0 15.0
15.0 13.0 15.0 5.6 14.9 15.0 15.0 15.0 1.4 0.2 1.9 1.4 1.2 15.0 15.0 15.0 11.8 4.7 1.0 1.6 8.7 15.0 15.0 15.0 15.0 13.7 15.0 14.4 15.0 15.0 15.0 15.0 15.0 15.0 15.0 15.0 15.0 15.0 15.0 15.0 15.0 12.2 8.2 6.3